Погода в Новоникольске

Россия / Новосибирская область     55°42′56″N   75°59′06″E
темп.,
°C
ветер,
м/с
пор.,
м/с
влажн.,
%
обл.,
%
осадки,
мм/ч
давл.,
гПа
погр.,
м
1 марта, пн
пн101:00−17в61196100 0.4 1015347
04:00−16всв61095100 0.4 1012326
07:00−16всв5109499 0.5 1011296
10:00−16всв5994100 0.1 1011322
13:00−15всв5794100 0.3 1011328
16:00−13св4793100 0.1 1011361
19:00−13св3795100 0.3 1012269
22:00−14св3795100 0.1 1013230
2 марта, вт
вт201:00−19ссв239883 0.1 101420
04:00−20ссв1210078 0.0 101520
07:00−22ссв1110082 0.0 101620
10:00−21зюз0010090 0.0 101620
13:00−17ю119289 0.1 1016170
16:00−15ююз129095 0.0 1015292
19:00−18ю129795 0.0 101520
22:00−19ю229893 0.0 101520
3 марта, ср
ср301:00−18ююз239794 0.1 101542
04:00−19ююз239885 0.1 101524
07:00−19ююз339887 0.1 101653
10:00−18ю369891 0.1 1015144
13:00−15ю489593 0.1 1015281
16:00−12ю61093100 0.0 1014453
19:00−15ю61292100 0.1 1014428
22:00−14ю61294100 0.2 1013493
4 марта, чт
чт401:00−10ю61293100 0.7 1012514
04:00−8ю71394100 0.3 1009529
07:00−6ююз71593100 0.6 1009567
10:00−3ююз71494100 0.5 1007688
13:00−1ююз81295100 1.0 1006876
16:00−1ююз91492100 0.7 1005890
19:00−2ююз81494100 1.1 1004821
22:00−2ююз81594100 0.4 1002742
5 марта, пт
пт501:00−2ююз81595100 1.0 1002699
04:00−2ююз71294100 0.3 1001684
07:00−2зюз71195100 0.8 1002602
10:00−7зюз6129385 0.1 1005358
13:00−8зюз7128669 0.1 1009591
16:00−7юз7118554 0.0 1010623
19:00−7ююз9178877 0.0 1009827
22:00−5юз101793100 1.3 10071117